Lid_Strength_Index
0 0 -0 -0 -1 -1 -1 -1 -1 -1 -1 -2 -1 -2 -2 -2 -2 -1 0 -2 2 5 4 3 3 5 4 5 7 5 6 6 7 10 10 9 9 8 9 8 8 9 10 10 10 10 12 5 6 7 4 3 4 4
1 0 0 0 0 -0 -1 -1 -1 -1 -1 -1 -1 -1 -1 -1 -1 -2 2 -1 -2 3 3 1 1 1 2 2 5 5 5 7 7 9 10 9 10 8 8 11 6 10 8 8 8 9 4 4 5 3 5 5 4 4
1 1 0 -0 -0 -0 -1 -1 -1 -1 -1 -1 -1 -1 -1 -1 -1 -1 1 -0 1 4 3 3 3 1 1 1 1 6 4 4 6 6 8 9 10 8 11 10 7 6 5 7 6 5 4 4 4 4 4 4 4 4
2 2 1 1 0 0 -0 -0 -1 -1 -1 -1 -1 -1 -1 -1 -1 -1 1 -0 1 3 7 5 1 2 0 1 1 1 2 2 3 6 9 9 11 7 9 8 9 6 6 7 7 5 5 5 4 4 4 4 4 3
2 2 2 1 1 1 0 1 1 0 -1 -1 -0 -0 -0 -1 -1 -1 -1 -1 -1 3 7 5 3 1 1 1 1 1 2 3 5 8 9 10 8 8 7 7 8 6 7 8 8 5 6 4 4 4 4 4 4 4
2 2 2 2 2 1 1 1 1 1 0 -1 -0 -0 -0 -0 -0 0 3 0 -0 1 5 9 2 3 2 2 2 2 3 3 4 6 8 7 6 8 11 11 6 5 4 5 6 5 4 4 4 3 4 4 3 3
2 1 2 2 2 2 1 1 1 1 1 0 -0 -0 -0 -0 0 3 4 1 -0 -1 7 9 8 4 3 3 3 3 3 4 5 6 7 7 7 8 10 11 6 6 5 4 4 4 5 5 5 3 3 3 3 2
2 1 1 2 2 2 2 2 1 1 1 1 1 1 1 1 1 2 1 1 1 4 5 9 8 7 3 6 6 4 6 5 6 7 7 8 7 8 12 7 5 5 5 5 4 4 4 3 3 3 3 3 3 3
2 1 1 2 2 2 2 2 2 2 2 2 2 2 2 3 5 3 1 1 2 5 9 9 11 12 4 6 6 6 5 10 6 9 8 7 9 12 8 7 6 6 6 5 4 4 4 4 4 3 3 3 4 4
2 2 2 2 2 2 2 2 2 2 2 2 3 5 7 4 3 2 5 7 7 8 9 11 7 10 7 7 8 8 7 10 12 9 7 10 9 6 5 5 5 5 4 4 5 6 5 5 5 4 4 4 4 4
2 2 2 2 2 2 2 2 3 3 3 5 6 7 3 3 5 6 9 9 9 10 10 9 10 10 5 10 10 7 10 9 13 11 11 12 11 8 6 6 5 4 4 3 3 3 3 4 4 4 4 3 3 3
2 2 2 2 2 2 2 2 2 3 4 5 5 4 5 7 8 10 11 10 11 12 9 9 8 8 6 5 9 8 11 11 14 8 11 14 10 8 6 6 5 4 4 4 3 4 3 3 3 3 3 3 3 2
3 3 2 2 2 2 2 2 2 2 3 4 6 8 9 9 13 14 14 13 13 10 9 7 9 7 7 6 8 10 13 13 9 12 13 12 9 7 6 6 6 4 4 4 4 3 3 3 3 3 3 2 2 2
4 3 3 2 2 2 2 2 2 2 2 4 7 12 10 11 12 12 11 11 8 8 7 7 8 9 8 9 9 13 11 10 14 15 15 10 8 7 6 5 5 5 5 5 5 4 4 4 4 3 2 2 2 3
4 4 3 2 2 3 3 3 3 1 3 6 6 12 10 7 7 7 6 7 6 5 7 8 8 8 9 10 10 10 12 14 14 14 11 8 7 6 6 5 5 5 4 4 4 5 5 4 4 3 2 2 2 2
4 4 2 3 3 2 3 2 0 -0 2 5 6 9 7 8 7 7 6 7 4 6 5 7 9 10 11 10 12 13 14 15 12 9 7 6 6 6 5 5 4 4 4 4 4 4 3 3 3 3 2 2 2 2
4 2 4 4 4 4 3 1 1 3 5 6 8 5 6 7 7 7 6 6 3 5 8 7 10 11 8 12 13 11 12 10 8 7 6 5 6 5 4 4 4 3 4 4 4 3 3 2 2 3 3 3 2 2
3 2 3 4 3 2 1 2 4 6 7 6 8 7 6 5 6 6 5 4 5 6 6 8 6 10 12 13 12 10 8 7 6 6 6 5 4 4 4 4 4 3 4 4 4 3 3 4 5 5 3 2 2 2
3 3 4 3 3 2 3 3 3 7 6 6 6 4 5 4 4 4 4 4 3 3 4 6 9 11 11 9 9 8 7 6 7 6 5 4 4 3 3 3 3 3 3 2 2 3 2 2 2 2 3 3 3 2
4 4 3 4 3 1 5 4 2 5 7 5 4 5 5 5 4 4 4 4 4 6 8 9 9 8 8 7 6 6 5 5 5 6 5 4 3 3 3 3 3 2 2 2 2 4 2 2 2 1 2 2 2 3
2 2 3 2 1 1 3 4 4 4 4 5 4 4 5 4 5 5 5 4 6 7 9 7 6 5 4 4 3 3 3 3 4 5 5 5 3 3 3 2 2 2 2 2 3 3 4 2 2 1 0 1 1 1
1 3 1 1 2 3 3 2 4 3 5 5 5 4 5 6 6 5 3 5 6 6 5 6 4 4 4 4 4 3 3 2 2 3 5 4 4 3 3 3 3 3 3 2 2 2 2 1 1 1 1 1 2 1
3 2 1 2 5 6 7 2 6 5 6 6 4 6 6 6 5 3 6 5 5 3 3 3 3 2 3 2 2 2 2 2 3 3 3 3 3 3 2 2 2 2 3 2 1 2 2 5 2 2 1 1 1 1
4 3 5 5 5 8 4 6 4 5 5 5 6 8 6 5 4 6 8 6 4 3 3 3 2 3 2 2 3 3 2 2 2 2 2 3 3 3 2 2 2 2 2 2 2 2 2 2 5 2 2 1 1 1
7 7 6 10 4 7 7 7 7 6 8 7 7 7 6 4 6 8 8 6 4 4 3 3 3 3 3 3 3 2 1 2 2 3 2 1 2 2 2 2 2 2 1 2 2 2 1 1 1 1 2 1 2 2
11 6 9 6 6 7 7 8 8 8 7 8 7 5 4 6 9 10 7 6 6 5 3 3 3 3 4 3 3 3 2 1 1 2 2 2 2 2 2 3 3 3 2 2 2 2 2 1 1 2 2 2 5 2
9 7 5 2 4 5 6 6 5 7 9 9 8 8 8 10 10 8 5 6 6 4 3 3 3 4 4 4 4 3 3 2 1 2 1 1 2 2 3 4 4 4 2 2 2 1 1 1 2 2 2 1 1 1
5 5 7 5 5 5 7 7 7 8 8 6 7 10 10 10 10 7 6 5 4 4 4 4 4 4 4 4 4 4 4 3 3 2 1 2 2 2 2 3 3 7 3 3 3 3 3 2 2 2 2 1 1 1
5 4 4 6 6 6 6 7 7 6 5 6 9 9 10 9 8 7 6 5 4 4 5 5 5 4 5 4 4 4 4 4 5 5 6 6 5 5 4 5 5 5 5 5 8 7 6 5 4 3 3 2 2 1
6 3 6 6 7 7 6 5 5 4 4 5 6 7 7 6 6 5 6 5 7 6 6 5 5 6 6 6 5 5 4 4 5 5 7 7 6 6 6 6 6 6 6 6 6 6 8 7 7 6 6 5 5 5
3 3 6 5 7 5 4 3 3 3 3 4 3 5 5 4 3 3 4 5 5 4 4 5 5 5 6 6 6 6 7 5 5 5 6 5 6 6 6 6 6 6 6 6 6 6 6 6 6 6 6 6 6 6
4 5 6 7 6 4 3 5 5 4 5 5 5 4 5 5 6 3 3 3 3 4 6 5 5 6 5 5 6 6 9 6 6 6 5 5 5 4 4 4 4 4 4 5 5 5 5 6 6 6 6 6 6 6
4 4 4 5 6 6 5 5 6 6 6 6 4 4 4 4 6 3 3 3 4 4 5 5 5 6 6 6 5 5 5 4 6 9 8 9 9 8 5 5 5 4 5 5 5 5 5 6 6 6 6 6 6 6